ANA41 RJTT-RJOO

Flight info

Callsign ANA41
Flight time N/A
Altitude 30000
Route LAXAS Y56 TOHME Y54 KOHWA Y546 AGPUK MIRAI ABENO IKOMA
Aircraft B77W/H-SDE1E2E3FGHIJ2J3J4J5M1RWXY/LB1D1

Departure

Time N/A
Airport Tokyo Haneda International Airport (RJTT)

Arrival

Time 2026-04-30 04:56
Airport Osaka Itami International Airport (RJOO)
Time Latitude Longitude Altitude Speed Heading
2026-04-30 04:45 34.48711 136.07968 10022 ft 251 kts 275°
2026-04-30 04:46 34.49088 136.05873 9695 ft 263 kts 282°
2026-04-30 04:46 34.49578 136.03728 9335 ft 266 kts 283°
2026-04-30 04:46 34.50085 136.01570 8995 ft 266 kts 283°
2026-04-30 04:46 34.50588 135.99422 8672 ft 266 kts 283°
2026-04-30 04:47 34.51088 135.97272 8354 ft 265 kts 283°
2026-04-30 04:47 34.51593 135.95099 8031 ft 266 kts 283°
2026-04-30 04:47 34.52089 135.92967 7716 ft 266 kts 283°
2026-04-30 04:47 34.52594 135.90804 7398 ft 266 kts 284°
2026-04-30 04:48 34.53098 135.88634 7075 ft 267 kts 284°
2026-04-30 04:48 34.53597 135.86485 6746 ft 267 kts 284°
2026-04-30 04:48 34.54090 135.84302 6426 ft 267 kts 284°
2026-04-30 04:48 34.54594 135.82134 6094 ft 267 kts 283°
2026-04-30 04:49 34.55094 135.79984 5773 ft 268 kts 284°
2026-04-30 04:49 34.55613 135.77805 5457 ft 267 kts 284°
2026-04-30 04:49 34.56118 135.75645 5174 ft 265 kts 284°
2026-04-30 04:49 34.56622 135.73523 5097 ft 255 kts 284°
2026-04-30 04:50 34.57072 135.71509 5034 ft 244 kts 284°
2026-04-30 04:50 34.57536 135.69566 4936 ft 236 kts 294°
2026-04-30 04:50 34.58499 135.67975 4838 ft 227 kts 313°
2026-04-30 04:50 34.59532 135.66551 4796 ft 221 kts 311°
2026-04-30 04:51 34.60548 135.65161 4570 ft 218 kts 314°
2026-04-30 04:51 34.61592 135.63853 4301 ft 217 kts 316°
2026-04-30 04:51 34.62681 135.62556 4025 ft 217 kts 317°
2026-04-30 04:51 34.63766 135.61285 3736 ft 217 kts 317°
2026-04-30 04:52 34.64848 135.60002 3460 ft 216 kts 317°
2026-04-30 04:52 34.65915 135.58731 3175 ft 216 kts 317°
2026-04-30 04:52 34.66993 135.57449 2897 ft 215 kts 317°
2026-04-30 04:52 34.68050 135.56184 2617 ft 211 kts 317°
2026-04-30 04:53 34.69088 135.54929 2346 ft 208 kts 317°
2026-04-30 04:53 34.70094 135.53737 2080 ft 196 kts 318°
2026-04-30 04:53 34.71042 135.52591 1826 ft 189 kts 319°
2026-04-30 04:53 34.71959 135.51503 1576 ft 182 kts 318°
2026-04-30 04:54 34.72816 135.50442 1357 ft 168 kts 319°
2026-04-30 04:54 34.73641 135.49489 1039 ft 159 kts 318°
2026-04-30 04:54 34.74394 135.48557 829 ft 150 kts 321°
2026-04-30 04:54 34.75151 135.47688 635 ft 150 kts 319°
2026-04-30 04:55 34.75868 135.46803 404 ft 146 kts 319°
2026-04-30 04:55 34.76587 135.45940 245 ft 144 kts 320°
2026-04-30 04:55 34.77298 135.45087 54 ft 143 kts 318°
2026-04-30 04:55 34.77968 135.44279 40 ft 122 kts 314°
2026-04-30 04:56 34.78460 135.43684 44 ft 77 kts 315°
2026-04-30 04:56 34.78734 135.43353 49 ft 34 kts 315°
2026-04-30 04:56 34.78904 135.43147 52 ft 32 kts 315°
2026-04-30 04:56 34.79062 135.42964 56 ft 29 kts 317°
2026-04-30 04:57 34.79176 135.42900 63 ft 13 kts 35°
2026-04-30 04:57 34.79251 135.42989 62 ft 14 kts 48°
2026-04-30 04:57 34.79319 135.43080 61 ft 17 kts 48°
2026-04-30 04:57 34.79380 135.43166 63 ft 12 kts 66°
2026-04-30 04:58 34.79345 135.43272 61 ft 16 kts 135°
2026-04-30 04:58 34.79254 135.43378 55 ft 18 kts 136°
2026-04-30 04:58 34.79157 135.43497 48 ft 21 kts 135°
2026-04-30 04:58 34.79055 135.43622 45 ft 15 kts 127°
2026-04-30 04:59 34.79084 135.43680 47 ft 16 kts 26°
2026-04-30 04:59 34.79162 135.43749 52 ft 6 kts 44°